Time,TemperatureF,DewpointF,PressureIn,WindDirection,WindDirectionDegrees,WindSpeedMPH,WindSpeedGustMPH,Humidity,HourlyPrecipIn,Conditions,Clouds,dailyrainin,SoftwareType,DateUTC
2013-01-08 06:50:00,30.0,27.4,30.34,South,180,4.0,7.0,90,0.00,,,0.00,Weather View 32 v70,2013-01-08 11:50:00,
2013-01-08 06:51:00,30.0,27.4,30.34,SSW,202,4.0,7.0,90,0.00,,,0.00,Weather View 32 v70,2013-01-08 11:51:00,
2013-01-08 06:56:00,31.0,28.1,30.33,South,180,4.0,8.0,89,0.00,,,0.00,Weather View 32 v70,2013-01-08 11:56:00,
2013-01-08 07:01:00,31.0,28.1,30.34,SSW,202,6.0,9.0,89,0.00,,,0.00,Weather View 32 v70,2013-01-08 12:01:00,
2013-01-08 07:06:00,31.0,27.9,30.34,SSW,202,1.0,9.0,88,0.00,,,0.00,Weather View 32 v70,2013-01-08 12:06:00,
2013-01-08 07:11:00,31.0,27.9,30.34,NW,315,1.0,9.0,88,0.00,,,0.00,Weather View 32 v70,2013-01-08 12:11:00,
2013-01-08 07:16:00,31.0,27.9,30.34,SW,225,6.0,9.0,88,0.00,,,0.00,Weather View 32 v70,2013-01-08 12:16:00,
2013-01-08 07:21:00,32.0,28.8,30.34,SSE,158,3.0,9.0,88,0.00,,,0.00,Weather View 32 v70,2013-01-08 12:21:00,
2013-01-08 07:26:00,32.0,31.2,30.34,SSW,202,4.0,9.0,97,0.00,,,0.00,Weather View 32 v70,2013-01-08 12:26:00,
2013-01-08 07:31:00,32.0,28.6,30.34,SSE,158,2.0,9.0,87,0.00,,,0.00,Weather View 32 v70,2013-01-08 12:31:00,
2013-01-08 07:36:00,32.0,28.3,30.34,SSW,202,7.0,9.0,86,0.00,,,0.00,Weather View 32 v70,2013-01-08 12:36:00,
2013-01-08 07:41:00,33.0,29.6,30.35,SW,225,4.0,9.0,87,0.00,,,0.00,Weather View 32 v70,2013-01-08 12:41:00,
2013-01-08 07:46:00,33.0,29.6,30.35,SW,225,4.0,9.0,87,0.00,,,0.00,Weather View 32 v70,2013-01-08 12:46:00,
2013-01-08 07:50:00,33.0,29.0,30.35,SW,225,3.0,9.0,85,0.00,,,0.00,Weather View 32 v70,2013-01-08 12:50:00,
2013-01-08 07:51:00,33.0,29.3,30.36,SW,225,3.0,9.0,86,0.00,,,0.00,Weather View 32 v70,2013-01-08 12:51:00,
2013-01-08 08:50:00,37.0,30.1,30.36,SW,225,6.0,6.0,76,0.01,,,0.01,Weather View 32 v70,2013-01-08 13:50:00,
2013-01-08 08:55:00,37.0,32.6,30.36,SSW,202,7.0,13.0,84,0.01,,,0.01,Weather View 32 v70,2013-01-08 13:55:00,
2013-01-08 09:00:00,37.0,31.7,30.36,SW,225,3.0,13.0,81,0.01,,,0.01,Weather View 32 v70,2013-01-08 14:00:00,
2013-01-08 09:05:00,38.0,32.4,30.36,South,180,5.0,13.0,80,0.01,,,0.01,Weather View 32 v70,2013-01-08 14:05:00,
2013-01-08 09:10:00,38.0,30.1,30.36,SSW,202,2.0,13.0,73,0.01,,,0.01,Weather View 32 v70,2013-01-08 14:10:00,
2013-01-08 09:15:00,39.0,30.0,30.36,SW,225,10.0,13.0,70,0.01,,,0.01,Weather View 32 v70,2013-01-08 14:15:00,
2013-01-08 09:20:00,39.0,23.3,30.36,SSW,202,6.0,13.0,53,0.01,,,0.01,Weather View 32 v70,2013-01-08 14:20:00,
2013-01-08 09:25:00,39.0,25.0,30.36,SSW,202,11.0,13.0,57,0.01,,,0.01,Weather View 32 v70,2013-01-08 14:25:00,
2013-01-08 09:30:00,40.0,29.2,30.36,SSW,202,4.0,13.0,65,0.00,,,0.01,Weather View 32 v70,2013-01-08 14:30:00,
2013-01-08 09:35:00,40.0,29.2,30.36,WSW,248,6.0,13.0,65,0.00,,,0.01,Weather View 32 v70,2013-01-08 14:35:00,
2013-01-08 09:40:00,40.0,28.8,30.37,South,180,7.0,13.0,64,0.00,,,0.01,Weather View 32 v70,2013-01-08 14:40:00,
2013-01-08 09:45:00,41.0,29.7,30.36,SW,225,7.0,13.0,64,0.00,,,0.01,Weather View 32 v70,2013-01-08 14:45:00,
2013-01-08 09:50:00,41.0,29.7,30.37,South,180,6.0,13.0,64,0.00,,,0.01,Weather View 32 v70,2013-01-08 14:50:00,
2013-01-08 09:55:00,41.0,29.0,30.37,SSW,202,5.0,14.0,62,0.00,,,0.01,Weather View 32 v70,2013-01-08 14:55:00,
2013-01-08 10:00:00,41.0,29.4,30.37,SSW,202,5.0,16.0,63,0.00,,,0.01,Weather View 32 v70,2013-01-08 15:00:00,
2013-01-08 10:05:00,41.0,31.2,30.36,SSW,202,7.0,16.0,68,0.00,,,0.01,Weather View 32 v70,2013-01-08 15:05:00,
2013-01-08 10:10:00,42.0,31.5,30.36,SW,225,3.0,16.0,66,0.00,,,0.01,Weather View 32 v70,2013-01-08 15:10:00,
2013-01-08 10:15:00,42.0,28.3,30.36,SW,225,7.0,21.0,58,0.00,,,0.01,Weather View 32 v70,2013-01-08 15:15:00,
2013-01-08 10:20:00,42.0,28.7,30.36,WSW,248,2.0,21.0,59,0.00,,,0.01,Weather View 32 v70,2013-01-08 15:20:00,
2013-01-08 10:28:00,43.0,29.6,30.35,South,180,2.0,21.0,59,0.00,,,0.01,Weather View 32 v70,2013-01-08 15:28:00,
2013-01-08 10:33:00,43.0,27.5,30.35,WNW,292,3.0,21.0,54,0.00,,,0.01,Weather View 32 v70,2013-01-08 15:33:00,
2013-01-08 10:38:00,44.0,30.6,30.34,West,270,3.0,21.0,59,0.00,,,0.01,Weather View 32 v70,2013-01-08 15:38:00,
2013-01-08 10:43:00,43.0,29.6,30.34,South,180,5.0,21.0,59,0.00,,,0.01,Weather View 32 v70,2013-01-08 15:43:00,
2013-01-08 10:49:00,44.0,27.9,30.34,SW,225,7.0,21.0,53,0.00,,,0.01,Weather View 32 v70,2013-01-08 15:49:00,
2013-01-08 10:54:00,44.0,27.5,30.34,SW,225,13.0,21.0,52,0.00,,,0.01,Weather View 32 v70,2013-01-08 15:54:00,
2013-01-08 10:59:00,44.0,27.5,30.33,SSW,202,10.0,21.0,52,0.00,,,0.01,Weather View 32 v70,2013-01-08 15:59:00,
2013-01-08 11:04:00,44.0,27.5,30.33,SW,225,6.0,21.0,52,0.00,,,0.01,Weather View 32 v70,2013-01-08 16:04:00,
2013-01-08 11:09:00,44.0,27.5,30.33,SSW,202,4.0,21.0,52,0.00,,,0.01,Weather View 32 v70,2013-01-08 16:09:00,
2013-01-08 11:14:00,44.0,27.5,30.33,SSW,202,7.0,21.0,52,0.00,,,0.01,Weather View 32 v70,2013-01-08 16:14:00,
2013-01-08 11:19:00,44.0,27.0,30.32,SW,225,6.0,20.0,51,0.00,,,0.01,Weather View 32 v70,2013-01-08 16:19:00,
2013-01-08 11:24:00,44.0,29.3,30.32,SW,225,5.0,20.0,56,0.00,,,0.01,Weather View 32 v70,2013-01-08 16:24:00,
2013-01-08 11:29:00,44.0,29.3,30.32,WSW,248,4.0,20.0,56,0.00,,,0.01,Weather View 32 v70,2013-01-08 16:29:00,
2013-01-08 11:34:00,45.0,30.2,30.31,West,270,3.0,20.0,56,0.00,,,0.01,Weather View 32 v70,2013-01-08 16:34:00,
2013-01-08 11:39:00,45.0,30.7,30.31,WSW,248,7.0,20.0,57,0.00,,,0.01,Weather View 32 v70,2013-01-08 16:39:00,
2013-01-08 11:44:00,45.0,27.9,30.31,SW,225,3.0,20.0,51,0.00,,,0.01,Weather View 32 v70,2013-01-08 16:44:00,
2013-01-08 11:49:00,45.0,30.2,30.30,SSE,158,10.0,20.0,56,0.00,,,0.01,Weather View 32 v70,2013-01-08 16:49:00,
2013-01-08 11:54:00,45.0,28.4,30.31,West,270,5.0,20.0,52,0.00,,,0.01,Weather View 32 v70,2013-01-08 16:54:00,
2013-01-08 11:59:00,45.0,27.9,30.30,SSW,202,7.0,20.0,51,0.00,,,0.01,Weather View 32 v70,2013-01-08 16:59:00,
2013-01-08 12:04:00,45.0,28.4,30.30,South,180,6.0,20.0,52,0.00,,,0.01,Weather View 32 v70,2013-01-08 17:04:00,
2013-01-08 12:09:00,45.0,29.8,30.29,SW,225,9.0,18.0,55,0.00,,,0.01,Weather View 32 v70,2013-01-08 17:09:00,
2013-01-08 12:14:00,45.0,28.4,30.29,South,180,4.0,20.0,52,0.00,,,0.01,Weather View 32 v70,2013-01-08 17:14:00,
2013-01-08 12:19:00,45.0,31.5,30.29,SW,225,8.0,20.0,59,0.00,,,0.01,Weather View 32 v70,2013-01-08 17:19:00,
2013-01-08 12:24:00,45.0,30.2,30.29,South,180,7.0,20.0,56,0.00,,,0.01,Weather View 32 v70,2013-01-08 17:24:00,
2013-01-08 12:29:00,45.0,29.8,30.28,SSW,202,9.0,20.0,55,0.00,,,0.01,Weather View 32 v70,2013-01-08 17:29:00,
2013-01-08 12:34:00,45.0,30.7,30.29,WSW,248,5.0,20.0,57,0.00,,,0.01,Weather View 32 v70,2013-01-08 17:34:00,
2013-01-08 12:39:00,45.0,30.2,30.29,SW,225,5.0,20.0,56,0.00,,,0.01,Weather View 32 v70,2013-01-08 17:39:00,
2013-01-08 12:44:00,45.0,29.8,30.29,SW,225,5.0,20.0,55,-0.01,,,0.01,Weather View 32 v70,2013-01-08 17:44:00,
2013-01-08 12:49:00,46.0,29.8,30.28,NNE,22,3.0,20.0,53,0.00,,,0.01,Weather View 32 v70,2013-01-08 17:49:00,
2013-01-08 12:54:00,46.0,30.7,30.28,SW,225,4.0,20.0,55,0.00,,,0.01,Weather View 32 v70,2013-01-08 17:54:00,
2013-01-08 12:59:00,46.0,31.2,30.28,South,180,10.0,20.0,56,0.00,,,0.01,Weather View 32 v70,2013-01-08 17:59:00,
2013-01-08 13:04:00,46.0,30.7,30.27,South,180,7.0,20.0,55,0.00,,,0.01,Weather View 32 v70,2013-01-08 18:04:00,
2013-01-08 13:09:00,46.0,29.3,30.28,SW,225,5.0,20.0,52,0.00,,,0.01,Weather View 32 v70,2013-01-08 18:09:00,
2013-01-08 13:14:00,46.0,28.9,30.27,South,180,9.0,17.0,51,0.00,,,0.01,Weather View 32 v70,2013-01-08 18:14:00,
2013-01-08 13:19:00,46.0,29.8,30.27,SSW,202,7.0,17.0,53,0.00,,,0.01,Weather View 32 v70,2013-01-08 18:19:00,
2013-01-08 13:24:00,46.0,28.9,30.27,SSE,158,7.0,17.0,51,0.00,,,0.01,Weather View 32 v70,2013-01-08 18:24:00,
2013-01-08 13:29:00,46.0,28.4,30.27,SW,225,4.0,17.0,50,0.00,,,0.01,Weather View 32 v70,2013-01-08 18:29:00,
2013-01-08 13:34:00,46.0,27.4,30.27,South,180,7.0,17.0,48,0.00,,,0.01,Weather View 32 v70,2013-01-08 18:34:00,
2013-01-08 13:39:00,46.0,27.4,30.27,SW,225,5.0,17.0,48,0.00,,,0.01,Weather View 32 v70,2013-01-08 18:39:00,
2013-01-08 13:44:00,46.0,27.4,30.27,South,180,11.0,17.0,48,0.00,,,0.01,Weather View 32 v70,2013-01-08 18:44:00,
2013-01-08 13:49:00,46.0,27.4,30.27,SW,225,8.0,17.0,48,0.00,,,0.01,Weather View 32 v70,2013-01-08 18:49:00,
2013-01-08 13:54:00,46.0,27.4,30.28,SW,225,5.0,17.0,48,0.00,,,0.01,Weather View 32 v70,2013-01-08 18:54:00,
2013-01-08 13:59:00,47.0,28.3,30.28,SSW,202,4.0,17.0,48,0.00,,,0.01,Weather View 32 v70,2013-01-08 18:59:00,
2013-01-08 14:04:00,47.0,28.8,30.28,South,180,7.0,17.0,49,0.00,,,0.01,Weather View 32 v70,2013-01-08 19:04:00,
2013-01-08 14:09:00,47.0,27.8,30.28,SSW,202,7.0,17.0,47,0.00,,,0.01,Weather View 32 v70,2013-01-08 19:09:00,
2013-01-08 14:14:00,46.0,29.3,30.28,SSW,202,11.0,18.0,52,0.00,,,0.01,Weather View 32 v70,2013-01-08 19:14:00,
2013-01-08 14:19:00,46.0,31.2,30.28,South,180,2.0,18.0,56,0.00,,,0.01,Weather View 32 v70,2013-01-08 19:19:00,
2013-01-08 14:24:00,46.0,30.7,30.28,SSW,202,7.0,18.0,55,0.00,,,0.01,Weather View 32 v70,2013-01-08 19:24:00,
2013-01-08 14:29:00,46.0,30.3,30.28,WSW,248,5.0,18.0,54,0.00,,,0.01,Weather View 32 v70,2013-01-08 19:29:00,
2013-01-08 14:34:00,46.0,30.7,30.28,South,180,10.0,18.0,55,0.00,,,0.01,Weather View 32 v70,2013-01-08 19:34:00,
2013-01-08 14:39:00,46.0,27.4,30.28,SW,225,3.0,18.0,48,0.00,,,0.01,Weather View 32 v70,2013-01-08 19:39:00,
2013-01-08 14:44:00,46.0,27.4,30.28,SW,225,8.0,18.0,48,0.00,,,0.01,Weather View 32 v70,2013-01-08 19:44:00,
2013-01-08 14:49:00,46.0,27.4,30.28,SW,225,5.0,18.0,48,0.00,,,0.01,Weather View 32 v70,2013-01-08 19:49:00,
2013-01-08 14:54:00,46.0,27.9,30.28,South,180,5.0,18.0,49,0.00,,,0.01,Weather View 32 v70,2013-01-08 19:54:00,
2013-01-08 14:59:00,46.0,28.4,30.27,SW,225,3.0,18.0,50,0.00,,,0.01,Weather View 32 v70,2013-01-08 19:59:00,
2013-01-08 15:04:00,46.0,28.9,30.27,South,180,7.0,18.0,51,0.00,,,0.01,Weather View 32 v70,2013-01-08 20:04:00,
2013-01-08 15:09:00,46.0,29.3,30.28,South,180,9.0,18.0,52,0.00,,,0.01,Weather View 32 v70,2013-01-08 20:09:00,
2013-01-08 15:14:00,46.0,28.9,30.28,South,180,3.0,18.0,51,0.00,,,0.01,Weather View 32 v70,2013-01-08 20:14:00,
2013-01-08 15:19:00,46.0,29.3,30.28,SSW,202,5.0,14.0,52,0.00,,,0.01,Weather View 32 v70,2013-01-08 20:19:00,
2013-01-08 15:24:00,46.0,29.3,30.28,South,180,9.0,14.0,52,0.00,,,0.01,Weather View 32 v70,2013-01-08 20:24:00,
2013-01-08 15:29:00,45.0,28.4,30.28,SW,225,4.0,14.0,52,0.00,,,0.01,Weather View 32 v70,2013-01-08 20:29:00,
2013-01-08 15:34:00,45.0,28.4,30.28,SSW,202,3.0,14.0,52,0.00,,,0.01,Weather View 32 v70,2013-01-08 20:34:00,
2013-01-08 15:39:00,45.0,27.9,30.28,South,180,7.0,14.0,51,0.00,,,0.01,Weather View 32 v70,2013-01-08 20:39:00,
2013-01-08 15:44:00,45.0,27.9,30.28,SW,225,3.0,14.0,51,0.00,,,0.01,Weather View 32 v70,2013-01-08 20:44:00,
2013-01-08 15:49:00,45.0,27.5,30.29,WSW,248,4.0,12.0,50,0.00,,,0.01,Weather View 32 v70,2013-01-08 20:49:00,
2013-01-08 15:54:00,45.0,27.5,30.28,WNW,292,4.0,12.0,50,0.00,,,0.01,Weather View 32 v70,2013-01-08 20:54:00,
2013-01-08 15:59:00,45.0,28.4,30.28,SSW,202,2.0,12.0,52,0.00,,,0.01,Weather View 32 v70,2013-01-08 20:59:00,
2013-01-08 16:04:00,45.0,27.9,30.28,SSW,202,3.0,12.0,51,0.00,,,0.01,Weather View 32 v70,2013-01-08 21:04:00,
2013-01-08 16:09:00,45.0,28.9,30.29,SSW,202,1.0,12.0,53,0.00,,,0.01,Weather View 32 v70,2013-01-08 21:09:00,
2013-01-08 16:14:00,44.0,27.0,30.29,WSW,248,0.0,12.0,51,0.00,,,0.01,Weather View 32 v70,2013-01-08 21:14:00,
2013-01-08 16:19:00,44.0,27.9,30.29,SSW,202,0.0,12.0,53,0.00,,,0.01,Weather View 32 v70,2013-01-08 21:19:00,
2013-01-08 16:24:00,44.0,33.0,30.29,South,180,0.0,12.0,65,0.00,,,0.01,Weather View 32 v70,2013-01-08 21:24:00,
2013-01-08 16:29:00,43.0,27.9,30.29,SE,135,0.0,12.0,55,0.00,,,0.01,Weather View 32 v70,2013-01-08 21:29:00,
2013-01-08 16:34:00,42.0,30.3,30.29,SSW,202,0.0,11.0,63,0.00,,,0.01,Weather View 32 v70,2013-01-08 21:34:00,
2013-01-08 16:39:00,41.0,29.7,30.29,South,180,0.0,11.0,64,0.00,,,0.01,Weather View 32 v70,2013-01-08 21:39:00,
2013-01-08 16:44:00,41.0,27.3,30.30,SW,225,0.0,11.0,58,0.00,,,0.01,Weather View 32 v70,2013-01-08 21:44:00,
2013-01-08 16:49:00,40.0,26.4,30.30,West,270,0.0,9.0,58,0.00,,,0.01,Weather View 32 v70,2013-01-08 21:49:00,
2013-01-08 16:54:00,40.0,31.0,30.30,SW,225,0.0,6.0,70,0.00,,,0.01,Weather View 32 v70,2013-01-08 21:54:00,
2013-01-08 16:59:00,39.0,29.7,30.30,WSW,248,0.0,6.0,69,0.00,,,0.01,Weather View 32 v70,2013-01-08 21:59:00,
2013-01-08 17:04:00,39.0,29.3,30.30,South,180,0.0,5.0,68,0.00,,,0.01,Weather View 32 v70,2013-01-08 22:04:00,
2013-01-08 17:09:00,38.0,25.7,30.31,SW,225,2.0,5.0,61,0.00,,,0.01,Weather View 32 v70,2013-01-08 22:09:00,
2013-01-08 17:14:00,38.0,29.4,30.31,West,270,0.0,5.0,71,0.00,,,0.01,Weather View 32 v70,2013-01-08 22:14:00,
2013-01-08 17:19:00,37.0,28.8,30.31,SW,225,0.0,2.0,72,0.00,,,0.01,Weather View 32 v70,2013-01-08 22:19:00,
2013-01-08 17:24:00,37.0,27.1,30.32,SSW,202,0.0,2.0,67,0.00,,,0.01,Weather View 32 v70,2013-01-08 22:24:00,
2013-01-08 17:29:00,36.0,25.4,30.32,South,180,0.0,2.0,65,0.00,,,0.01,Weather View 32 v70,2013-01-08 22:29:00,
2013-01-08 17:34:00,36.0,25.7,30.32,South,180,0.0,2.0,66,0.00,,,0.01,Weather View 32 v70,2013-01-08 22:34:00,
2013-01-08 17:39:00,35.0,25.1,30.32,SSE,158,0.0,2.0,67,0.00,,,0.01,Weather View 32 v70,2013-01-08 22:39:00,
2013-01-08 17:44:00,35.0,25.1,30.32,SSE,158,0.0,2.0,67,0.00,,,0.01,Weather View 32 v70,2013-01-08 22:44:00,
2013-01-08 17:49:00,34.0,24.2,30.32,SSE,158,0.0,2.0,67,0.00,,,0.01,Weather View 32 v70,2013-01-08 22:49:00,
2013-01-08 17:54:00,34.0,24.5,30.32,ESE,112,0.0,2.0,68,0.00,,,0.01,Weather View 32 v70,2013-01-08 22:54:00,
2013-01-08 17:59:00,33.0,24.3,30.33,ESE,112,0.0,2.0,70,0.00,,,0.01,Weather View 32 v70,2013-01-08 22:59:00,
2013-01-08 18:04:00,33.0,24.3,30.33,ESE,112,0.0,2.0,70,0.00,,,0.01,Weather View 32 v70,2013-01-08 23:04:00,
2013-01-08 18:09:00,33.0,25.0,30.33,SW,225,0.0,2.0,72,0.00,,,0.01,Weather View 32 v70,2013-01-08 23:09:00,
2013-01-08 18:14:00,32.0,24.0,30.33,SSW,202,0.0,0.0,72,0.00,,,0.01,Weather View 32 v70,2013-01-08 23:14:00,
2013-01-08 18:19:00,32.0,23.7,30.33,South,180,0.0,0.0,71,0.00,,,0.01,Weather View 32 v70,2013-01-08 23:19:00,
2013-01-08 18:24:00,32.0,24.0,30.33,SW,225,0.0,0.0,72,0.00,,,0.01,Weather View 32 v70,2013-01-08 23:24:00,
2013-01-08 18:29:00,32.0,24.3,30.33,South,180,0.0,0.0,73,0.00,,,0.01,Weather View 32 v70,2013-01-08 23:29:00,
2013-01-08 18:34:00,32.0,24.3,30.33,NNW,338,0.0,0.0,73,0.00,,,0.01,Weather View 32 v70,2013-01-08 23:34:00,
2013-01-08 18:39:00,31.0,23.7,30.33,SE,135,0.0,0.0,74,0.00,,,0.01,Weather View 32 v70,2013-01-08 23:39:00,
2013-01-08 18:44:00,31.0,23.4,30.33,SSE,158,0.0,0.0,73,0.00,,,0.01,Weather View 32 v70,2013-01-08 23:44:00,
2013-01-08 18:49:00,31.0,23.7,30.34,SSW,202,0.0,0.0,74,0.00,,,0.01,Weather View 32 v70,2013-01-08 23:49:00,
2013-01-08 18:54:00,31.0,24.0,30.33,South,180,0.0,0.0,75,0.00,,,0.01,Weather View 32 v70,2013-01-08 23:54:00,
2013-01-08 18:59:00,31.0,24.0,30.33,SSE,158,0.0,0.0,75,0.00,,,0.01,Weather View 32 v70,2013-01-08 23:59:00,
2013-01-08 19:04:00,30.0,23.4,30.33,WSW,248,0.0,0.0,76,0.00,,,0.01,Weather View 32 v70,2013-01-09 00:04:00,
2013-01-08 19:09:00,30.0,23.4,30.34,SSW,202,0.0,0.0,76,0.00,,,0.01,Weather View 32 v70,2013-01-09 00:09:00,
2013-01-08 19:14:00,30.0,23.7,30.34,South,180,0.0,0.0,77,0.00,,,0.01,Weather View 32 v70,2013-01-09 00:14:00,
2013-01-08 19:19:00,30.0,23.7,30.33,SSW,202,0.0,0.0,77,0.00,,,0.01,Weather View 32 v70,2013-01-09 00:19:00,
2013-01-08 19:24:00,30.0,23.7,30.33,SE,135,0.0,0.0,77,0.00,,,0.01,Weather View 32 v70,2013-01-09 00:24:00,
2013-01-08 19:29:00,30.0,23.7,30.34,SE,135,0.0,0.0,77,0.00,,,0.01,Weather View 32 v70,2013-01-09 00:29:00,
2013-01-08 19:34:00,30.0,24.0,30.34,South,180,0.0,0.0,78,0.00,,,0.01,Weather View 32 v70,2013-01-09 00:34:00,
2013-01-08 19:39:00,29.0,24.8,30.34,SSW,202,0.0,0.0,84,0.00,,,0.01,Weather View 32 v70,2013-01-09 00:39:00,
2013-01-08 19:44:00,29.0,24.5,30.34,SW,225,0.0,0.0,83,0.00,,,0.01,Weather View 32 v70,2013-01-09 00:44:00,
2013-01-08 19:49:00,29.0,23.3,30.34,SSE,158,0.0,0.0,79,0.00,,,0.01,Weather View 32 v70,2013-01-09 00:49:00,
2013-01-08 19:55:00,29.0,23.3,30.34,SSE,158,0.0,0.0,79,0.00,,,0.01,Weather View 32 v70,2013-01-09 00:55:00,
2013-01-08 20:00:00,29.0,23.6,30.34,SSE,158,0.0,0.0,80,0.00,,,0.01,Weather View 32 v70,2013-01-09 01:00:00,
2013-01-08 20:05:00,29.0,24.2,30.35,SSE,158,0.0,0.0,82,0.00,,,0.01,Weather View 32 v70,2013-01-09 01:05:00,
2013-01-08 20:10:00,29.0,25.6,30.35,SSE,158,0.0,0.0,87,0.00,,,0.01,Weather View 32 v70,2013-01-09 01:10:00,
2013-01-08 20:15:00,29.0,26.4,30.35,SSE,158,0.0,0.0,90,0.00,,,0.01,Weather View 32 v70,2013-01-09 01:15:00,
2013-01-08 20:20:00,29.0,26.4,30.35,SSE,158,0.0,0.0,90,0.00,,,0.01,Weather View 32 v70,2013-01-09 01:20:00,
2013-01-08 20:25:00,29.0,26.4,30.35,SSE,158,0.0,0.0,90,0.00,,,0.01,Weather View 32 v70,2013-01-09 01:25:00,
2013-01-08 20:30:00,28.0,22.6,30.35,SSE,158,0.0,0.0,80,0.00,,,0.01,Weather View 32 v70,2013-01-09 01:30:00,
2013-01-08 20:35:00,28.0,22.9,30.35,SSE,158,0.0,0.0,81,0.00,,,0.01,Weather View 32 v70,2013-01-09 01:35:00,
2013-01-08 20:40:00,28.0,22.9,30.35,NNW,338,0.0,0.0,81,0.00,,,0.01,Weather View 32 v70,2013-01-09 01:40:00,
2013-01-08 20:45:00,28.0,22.9,30.35,WNW,292,0.0,0.0,81,0.00,,,0.01,Weather View 32 v70,2013-01-09 01:45:00,
2013-01-08 20:50:00,28.0,22.9,30.35,WNW,292,0.0,0.0,81,0.00,,,0.01,Weather View 32 v70,2013-01-09 01:50:00,
2013-01-08 20:55:00,28.0,22.9,30.36,WNW,292,0.0,0.0,81,0.00,,,0.01,Weather View 32 v70,2013-01-09 01:55:00,
2013-01-08 21:00:00,28.0,23.2,30.35,West,270,0.0,0.0,82,0.00,,,0.01,Weather View 32 v70,2013-01-09 02:00:00,
2013-01-08 21:05:00,28.0,23.5,30.35,SSW,202,0.0,0.0,83,0.00,,,0.01,Weather View 32 v70,2013-01-09 02:05:00,
2013-01-08 21:10:00,28.0,23.5,30.35,SSW,202,0.0,0.0,83,0.00,,,0.01,Weather View 32 v70,2013-01-09 02:10:00,
2013-01-08 21:15:00,27.0,22.5,30.36,South,180,0.0,0.0,83,0.00,,,0.01,Weather View 32 v70,2013-01-09 02:15:00,
2013-01-08 21:20:00,27.0,22.5,30.36,South,180,0.0,0.0,83,0.00,,,0.01,Weather View 32 v70,2013-01-09 02:20:00,
2013-01-08 21:25:00,27.0,22.5,30.36,South,180,0.0,0.0,83,0.00,,,0.01,Weather View 32 v70,2013-01-09 02:25:00,
2013-01-08 21:30:00,27.0,22.8,30.36,SSW,202,0.0,0.0,84,0.00,,,0.01,Weather View 32 v70,2013-01-09 02:30:00,
2013-01-08 21:35:00,27.0,25.0,30.35,North,0,0.0,0.0,92,0.00,,,0.01,Weather View 32 v70,2013-01-09 02:35:00,
2013-01-08 21:40:00,27.0,25.5,30.35,SW,225,0.0,0.0,94,0.00,,,0.01,Weather View 32 v70,2013-01-09 02:40:00,
2013-01-08 21:45:00,27.0,25.0,30.35,SW,225,0.0,0.0,92,0.00,,,0.01,Weather View 32 v70,2013-01-09 02:45:00,
2013-01-08 21:50:00,27.0,25.0,30.35,WSW,248,0.0,0.0,92,-0.01,,,0.01,Weather View 32 v70,2013-01-09 02:50:00,
2013-01-08 21:55:00,27.0,24.7,30.35,SSW,202,0.0,0.0,91,0.00,,,0.01,Weather View 32 v70,2013-01-09 02:55:00,
2013-01-08 22:00:00,27.0,23.9,30.36,South,180,0.0,0.0,88,0.00,,,0.01,Weather View 32 v70,2013-01-09 03:00:00,
2013-01-08 22:05:00,27.0,24.2,30.36,SSW,202,0.0,0.0,89,0.00,,,0.01,Weather View 32 v70,2013-01-09 03:05:00,
2013-01-08 22:10:00,27.0,24.7,30.36,NE,45,0.0,0.0,91,0.00,,,0.01,Weather View 32 v70,2013-01-09 03:10:00,
2013-01-08 22:15:00,27.0,25.0,30.36,NNE,22,0.0,0.0,92,0.00,,,0.01,Weather View 32 v70,2013-01-09 03:15:00,
2013-01-08 22:20:00,27.0,24.7,30.35,SSE,158,0.0,0.0,91,0.00,,,0.01,Weather View 32 v70,2013-01-09 03:20:00,
2013-01-08 22:25:00,27.0,24.7,30.35,SSE,158,0.0,0.0,91,0.00,,,0.01,Weather View 32 v70,2013-01-09 03:25:00,
2013-01-08 22:30:00,27.0,24.7,30.35,SSE,158,0.0,0.0,91,0.00,,,0.01,Weather View 32 v70,2013-01-09 03:30:00,
2013-01-08 22:35:00,27.0,23.1,30.35,SSW,202,0.0,0.0,85,0.00,,,0.01,Weather View 32 v70,2013-01-09 03:35:00,
2013-01-08 22:40:00,27.0,23.1,30.35,North,0,0.0,0.0,85,0.00,,,0.01,Weather View 32 v70,2013-01-09 03:40:00,
2013-01-08 22:45:00,27.0,23.1,30.35,North,0,0.0,0.0,85,0.00,,,0.01,Weather View 32 v70,2013-01-09 03:45:00,
2013-01-08 22:50:00,27.0,23.1,30.35,WSW,248,0.0,0.0,85,0.00,,,0.01,Weather View 32 v70,2013-01-09 03:50:00,
2013-01-08 22:55:00,27.0,23.1,30.35,WSW,248,0.0,0.0,85,0.00,,,0.01,Weather View 32 v70,2013-01-09 03:55:00,
2013-01-08 23:00:00,27.0,23.1,30.35,WSW,248,0.0,0.0,85,0.00,,,0.01,Weather View 32 v70,2013-01-09 04:00:00,
2013-01-08 23:05:00,27.0,23.1,30.35,North,0,0.0,0.0,85,0.00,,,0.01,Weather View 32 v70,2013-01-09 04:05:00,
2013-01-08 23:10:00,27.0,23.1,30.35,SSW,202,0.0,0.0,85,0.00,,,0.01,Weather View 32 v70,2013-01-09 04:10:00,
2013-01-08 23:15:00,27.0,23.4,30.35,South,180,0.0,0.0,86,0.00,,,0.01,Weather View 32 v70,2013-01-09 04:15:00,
2013-01-08 23:20:00,27.0,23.4,30.35,South,180,0.0,0.0,86,0.00,,,0.01,Weather View 32 v70,2013-01-09 04:20:00,
2013-01-08 23:25:00,27.0,23.4,30.35,North,0,0.0,0.0,86,0.00,,,0.01,Weather View 32 v70,2013-01-09 04:25:00,
2013-01-08 23:30:00,27.0,23.4,30.35,West,270,0.0,0.0,86,0.00,,,0.01,Weather View 32 v70,2013-01-09 04:30:00,
2013-01-08 23:35:00,26.0,22.4,30.35,West,270,0.0,0.0,86,0.00,,,0.01,Weather View 32 v70,2013-01-09 04:35:00,
2013-01-08 23:40:00,26.0,22.4,30.35,WSW,248,0.0,0.0,86,0.00,,,0.01,Weather View 32 v70,2013-01-09 04:40:00,
2013-01-08 23:45:00,26.0,22.4,30.35,SSW,202,0.0,0.0,86,0.00,,,0.01,Weather View 32 v70,2013-01-09 04:45:00,
2013-01-08 23:50:00,26.0,22.4,30.35,South,180,0.0,0.0,86,0.00,,,0.01,Weather View 32 v70,2013-01-09 04:50:00,
2013-01-08 23:55:00,26.0,22.4,30.35,South,180,0.0,0.0,86,0.00,,,0.01,Weather View 32 v70,2013-01-09 04:55:00,